When you browse on this site, cookies collect data to enhance your experience and personalize the content and advertising you see.
Visit our Privacy Policy to learn more. By continuing to use the site, you agree to this use of cookies and data.
  • en France
  • Liste des pays
  • À 7 jours
  • Température de l'eau
  • Carte satellitaire
  • Carte météo
  • Widgets météo
  • user-avatar
    Se connecter

    Météo par heure à Horta

    Ce jour, 9 Décembre, Dimanche

    Heure Température Précipitation Vent Pression Humidité
    00:00 -7°C° 0 mm 2 m/s 587 mmHg 69%
    01:00 -7°C° 0 mm 2 m/s 587 mmHg 70%
    02:00 -7°C° 0 mm 2 m/s 587 mmHg 72%
    03:00 -7°C° 0 mm 2 m/s 587 mmHg 76%
    04:00 -7°C° 0 mm 2 m/s 587 mmHg 76%
    05:00 -7°C° 0 mm 2 m/s 587 mmHg 77%
    06:00 -7°C° 0 mm 2 m/s 587 mmHg 78%
    07:00 -6°C° 0 mm 2 m/s 587 mmHg 77%
    08:00 -5°C° 0 mm 2 m/s 588 mmHg 75%
    09:00 -4°C° 0 mm 2 m/s 589 mmHg 71%
    10:00 -4°C° 0 mm 2 m/s 589 mmHg 70%
    11:00 -3°C° 0 mm 2 m/s 589 mmHg 69%
    12:00 -2°C° 0 mm 2 m/s 590 mmHg 68%
    13:00 -2°C° 0 mm 2 m/s 589 mmHg 70%
    14:00 -2°C° 0 mm 2 m/s 589 mmHg 71%
    15:00 -3°C° 0 mm 2 m/s 589 mmHg 72%
    16:00 -4°C° 0 mm 2 m/s 588 mmHg 74%
    17:00 -6°C° 0 mm 2 m/s 588 mmHg 76%
    18:00 -7°C° 0 mm 2 m/s 587 mmHg 77%
    19:00 -7°C° 0 mm 2 m/s 587 mmHg 76%
    20:00 -7°C° 0 mm 2 m/s 587 mmHg 75%
    21:00 -7°C° 0 mm 2 m/s 587 mmHg 74%
    22:00 -7°C° 0 mm 2 m/s 587 mmHg 74%
    23:00 -7°C° 0 mm 2 m/s 587 mmHg 74%

    Demain, 10 Décembre, Lundi

    Heure Température Précipitation Vent Pression Humidité
    00:00 -7°C° 0 mm 2 m/s 587 mmHg 74%
    01:00 -7°C° 0 mm 2 m/s 586 mmHg 73%
    02:00 -7°C° 0 mm 2 m/s 586 mmHg 72%
    03:00 -7°C° 0 mm 2 m/s 586 mmHg 71%
    04:00 -7°C° 0 mm 2 m/s 586 mmHg 70%
    05:00 -7°C° 0 mm 2 m/s 586 mmHg 68%
    06:00 -7°C° 0 mm 2 m/s 585 mmHg 66%
    07:00 -6°C° 0 mm 2 m/s 586 mmHg 63%
    08:00 -5°C° 0 mm 2 m/s 586 mmHg 60%
    09:00 -4°C° 0 mm 2 m/s 586 mmHg 57%
    10:00 -2°C° 0 mm 2 m/s 587 mmHg 56%
    11:00 -1°C° 0 mm 2 m/s 587 mmHg 54%
    12:00 +1°C° 0 mm 2 m/s 587 mmHg 52%
    13:00 +1°C° 0 mm 2 m/s 587 mmHg 54%
    14:00 -1°C° 0 mm 2 m/s 586 mmHg 57%
    15:00 -1°C° 0 mm 2 m/s 586 mmHg 59%
    16:00 -2°C° 0 mm 2 m/s 586 mmHg 59%
    17:00 -3°C° 0 mm 2 m/s 585 mmHg 59%
    18:00 -6°C° 0 mm 3 m/s 585 mmHg 58%
    19:00 -6°C° 0 mm 3 m/s 585 mmHg 59%
    20:00 -6°C° 0 mm 3 m/s 585 mmHg 59%
    21:00 -6°C° 0 mm 3 m/s 584 mmHg 60%
    22:00 -6°C° 0 mm 3 m/s 584 mmHg 61%
    23:00 -6°C° 0 mm 3 m/s 584 mmHg 62%

    Après-demain, 11 Décembre, Mardi

    Heure Température Précipitation Vent Pression Humidité
    00:00 -6°C° 0 mm 3 m/s 584 mmHg 64%
    01:00 -6°C° 0 mm 3 m/s 584 mmHg 63%
    02:00 -6°C° 0 mm 3 m/s 584 mmHg 62%
    03:00 -5°C° 0 mm 2 m/s 584 mmHg 60%
    04:00 -5°C° 0 mm 2 m/s 584 mmHg 59%
    05:00 -4°C° 0 mm 2 m/s 584 mmHg 58%
    06:00 -4°C° 0 mm 2 m/s 584 mmHg 56%
    07:00 -3°C° 0 mm 2 m/s 585 mmHg 55%
    08:00 -2°C° 0 mm 3 m/s 585 mmHg 54%
    09:00 -1°C° 0 mm 3 m/s 586 mmHg 53%
    10:00 0°C° 0 mm 3 m/s 586 mmHg 54%
    11:00 +1°C° 0 mm 3 m/s 586 mmHg 54%
    12:00 +3°C° 0 mm 3 m/s 586 mmHg 55%
    13:00 +2°C° 0 mm 3 m/s 586 mmHg 57%
    14:00 +1°C° 0 mm 3 m/s 585 mmHg 60%
    15:00 +1°C° 0 mm 3 m/s 585 mmHg 62%
    16:00 -1°C° 0 mm 4 m/s 585 mmHg 65%
    17:00 -2°C° 0 mm 4 m/s 584 mmHg 68%
    18:00 -3°C° 0 mm 4 m/s 584 mmHg 71%
    19:00 -3°C° 0 mm 4 m/s 583 mmHg 72%
    20:00 -3°C° 0 mm 4 m/s 583 mmHg 73%
    21:00 -3°C° 0 mm 4 m/s 582 mmHg 73%
    22:00 -3°C° 0.1 mm 4 m/s 582 mmHg 74%
    23:00 -4°C° 0.1 mm 4 m/s 582 mmHg 74%

    12 Décembre, Mercredi

    Heure Température Précipitation Vent Pression Humidité
    00:00 -4°C° 0.1 mm 4 m/s 582 mmHg 74%
    01:00 -4°C° 0.1 mm 4 m/s 583 mmHg 75%
    02:00 -4°C° 0.1 mm 4 m/s 583 mmHg 76%
    03:00 -4°C° 0.1 mm 4 m/s 584 mmHg 77%
    04:00 -4°C° 0 mm 3 m/s 584 mmHg 78%
    05:00 -5°C° 0 mm 3 m/s 584 mmHg 79%
    06:00 -5°C° 0 mm 3 m/s 584 mmHg 80%
    07:00 -5°C° 0 mm 3 m/s 585 mmHg 77%
    08:00 -5°C° 0 mm 3 m/s 585 mmHg 73%
    09:00 -5°C° 0 mm 3 m/s 586 mmHg 70%
    10:00 -3°C° 0 mm 2 m/s 586 mmHg 66%
    11:00 -2°C° 0 mm 2 m/s 586 mmHg 61%
    12:00 -1°C° 0 mm 2 m/s 586 mmHg 57%
    13:00 -2°C° 0.3 mm 2 m/s 586 mmHg 61%
    14:00 -2°C° 0.3 mm 2 m/s 586 mmHg 66%
    15:00 -2°C° 0.3 mm 2 m/s 585 mmHg 71%
    16:00 -3°C° 0.6 mm 2 m/s 585 mmHg 75%
    17:00 -3°C° 0.6 mm 2 m/s 585 mmHg 78%
    18:00 -4°C° 0.6 mm 2 m/s 585 mmHg 82%
    19:00 -4°C° 1 mm 2 m/s 585 mmHg 84%
    20:00 -4°C° 1 mm 2 m/s 585 mmHg 86%
    21:00 -4°C° 1 mm 2 m/s 584 mmHg 88%
    22:00 -4°C° 1 mm 2 m/s 584 mmHg 88%
    23:00 -4°C° 1 mm 2 m/s 584 mmHg 88%

    13 Décembre, Jeudi

    Heure Température Précipitation Vent Pression Humidité
    00:00 -4°C° 1 mm 2 m/s 584 mmHg 88%
    01:00 -5°C° 0.3 mm 3 m/s 584 mmHg 87%
    02:00 -5°C° 0.3 mm 3 m/s 584 mmHg 87%
    03:00 -5°C° 0.3 mm 3 m/s 584 mmHg 86%
    04:00 -5°C° 0.2 mm 3 m/s 584 mmHg 87%
    05:00 -5°C° 0.2 mm 2 m/s 584 mmHg 88%
    06:00 -5°C° 0.2 mm 2 m/s 584 mmHg 90%
    07:00 -5°C° 0.1 mm 2 m/s 584 mmHg 88%
    08:00 -5°C° 0.1 mm 2 m/s 585 mmHg 87%
    09:00 -5°C° 0.1 mm 2 m/s 586 mmHg 85%
    10:00 -4°C° 0.1 mm 2 m/s 586 mmHg 83%
    11:00 -4°C° 0.1 mm 2 m/s 586 mmHg 81%
    12:00 -5°C° 0.1 mm 3 m/s 587 mmHg 79%
    13:00 -4°C° 0.1 mm 2 m/s 587 mmHg 80%
    14:00 -5°C° 0.1 mm 2 m/s 587 mmHg 80%
    15:00 -5°C° 0.1 mm 2 m/s 587 mmHg 80%
    16:00 -6°C° 0 mm 2 m/s 587 mmHg 81%
    17:00 -7°C° 0 mm 1 m/s 587 mmHg 81%
    18:00 -8°C° 0 mm 1 m/s 587 mmHg 81%
    19:00 -8°C° 0 mm 1 m/s 587 mmHg 77%
    20:00 -10°C° 0 mm 2 m/s 587 mmHg 73%
    21:00 -10°C° 0 mm 2 m/s 587 mmHg 69%
    22:00 -10°C° 0 mm 2 m/s 587 mmHg 67%
    23:00 -10°C° 0 mm 2 m/s 587 mmHg 64%

    14 Décembre, Vendredi

    Heure Température Précipitation Vent Pression Humidité
    00:00 -12°C° 0 mm 2 m/s 587 mmHg 61%
    01:00 -12°C° 0 mm 2 m/s 587 mmHg 60%
    02:00 -12°C° 0 mm 2 m/s 587 mmHg 60%
    03:00 -12°C° 0 mm 2 m/s 587 mmHg 59%
    04:00 -12°C° 0 mm 2 m/s 587 mmHg 60%
    05:00 -12°C° 0 mm 2 m/s 587 mmHg 61%
    06:00 -13°C° 0 mm 2 m/s 587 mmHg 61%
    07:00 -12°C° 0 mm 2 m/s 587 mmHg 62%
    08:00 -10°C° 0 mm 2 m/s 588 mmHg 63%
    09:00 -9°C° 0 mm 2 m/s 588 mmHg 64%
    10:00 -9°C° 0 mm 2 m/s 589 mmHg 64%
    11:00 -8°C° 0 mm 2 m/s 589 mmHg 63%
    12:00 -7°C° 0 mm 2 m/s 589 mmHg 63%
    13:00 -7°C° 0 mm 2 m/s 589 mmHg 65%
    14:00 -7°C° 0 mm 2 m/s 589 mmHg 67%
    15:00 -8°C° 0 mm 2 m/s 589 mmHg 68%
    16:00 -9°C° 0 mm 2 m/s 588 mmHg 71%
    17:00 -12°C° 0 mm 2 m/s 588 mmHg 73%
    18:00 -13°C° 0 mm 2 m/s 587 mmHg 76%
    19:00 -13°C° 0 mm 2 m/s 587 mmHg 74%
    20:00 -13°C° 0 mm 2 m/s 587 mmHg 72%
    21:00 -13°C° 0 mm 2 m/s 587 mmHg 71%
    22:00 -13°C° 0 mm 2 m/s 587 mmHg 69%
    23:00 -13°C° 0 mm 2 m/s 587 mmHg 67%
    Voir plus